This is the latest recevied weather packets stored in our database for station/object F4GMT-11. If no packets are shown the sender has not sent any weather packets the latest 10 day(s).
| Time | Temp. | Humidity | Pressure | Rain* | Wind** | Luminosity | Snow |
|---|---|---|---|---|---|---|---|
| 1777497414 | 20.56° C | 58% | 1010.7 hPa | - | - | - | - |
| 1777496214 | 20.56° C | 58% | 1010.5 hPa | - | - | - | - |
| 1777491414 | 21.67° C | 57% | 1010.3 hPa | - | - | - | - |
| 1777489015 | 22.22° C | 57% | 1010.3 hPa | - | - | - | - |
| 1777487814 | 22.22° C | 57% | 1010 hPa | - | - | - | - |
| 1777486614 | 22.22° C | 58% | 1008.4 hPa | - | - | - | - |
| 1777485414 | 22.22° C | 58% | 1008.9 hPa | - | - | - | - |
| 1777484214 | 22.22° C | 58% | 1008.6 hPa | - | - | - | - |
| 1777471014 | 21.11° C | 63% | 1008.8 hPa | - | - | - | - |
| 1777459013 | 18.89° C | 61% | 1008.6 hPa | - | - | - | - |
| 1777454213 | 18.89° C | 60% | 1009 hPa | - | - | - | - |
| 1777450613 | 18.89° C | 59% | 1008.7 hPa | - | - | - | - |
| 1777449413 | 18.89° C | 59% | 1008.7 hPa | - | - | - | - |
| 1777448213 | 18.89° C | 58% | 1008.7 hPa | - | - | - | - |
| 1777413412 | 21.11° C | 54% | 1010.9 hPa | - | - | - | - |
| 1777409814 | 21.67° C | 53% | 1010.8 hPa | - | - | - | - |
| 1777405012 | 22.22° C | 53% | 1010.8 hPa | - | - | - | - |
| 1777401412 | 22.78° C | 53% | 1010.7 hPa | - | - | - | - |
| 1777400212 | 22.78° C | 54% | 1010.7 hPa | - | - | - | - |
| 1777399012 | 23.33° C | 54% | 1010.6 hPa | - | - | - | - |
| 1777397812 | 23.33° C | 54% | 1010.7 hPa | - | - | - | - |
| 1777396612 | 23.33° C | 54% | 1010.9 hPa | - | - | - | - |
| 1777395411 | 23.33° C | 54% | 1010.9 hPa | - | - | - | - |
| 1777393011 | 23.33° C | 56% | 1010.9 hPa | - | - | - | - |
| 1777391812 | 23.33° C | 57% | 1010.8 hPa | - | - | - | - |
* Rain since midnight (hover to see other rain measurements)
** Current wind speed in m/s (hover to see current wind gust speed)